Regional Weather Roundup
Issued by NWS Sioux Falls, SD

Home | Current Version | Previous Version | Graphics & Text | Print | Product List | Glossary On
Versions: 1 2 3 4 5 6 7 8 9 10 11 12 13 14 15 16 17 18 19 20 21 22 23 24 25 26 27 28 29 30 31 32 33 34 35 36 37 38 39 40 41 42 43 44 45 46 47 48 49 50
000
ASUS43 KFSD 212210
RWRFSD

WEATHER ROUNDUP FOR SE SOUTH DAKOTA/SW MINNESOTA/NW IOWA
NATIONAL WEATHER SERVICE SIOUX FALLS SD
500 PM CDT MON JUL 21 2014

NOTE: "FAIR" INDICATES FEW OR NO CLOUDS BELOW 12,000 FEET WITH NO
SIGNIFICANT WEATHER AND OR OBSTRUCTIONS TO VISIBILITY.


SDZ038>040-050-052>070-212300-
SOUTHEAST SOUTH DAKOTA

CITY           SKY/WX    TMP DP  RH WIND       PRES   REMARKS
CHAMBERLAIN    SUNNY    105  53  18 W18G25    29.72S HX 103
HURON          SUNNY     91  76  61 S14G21    29.71F HX 103
MADISON        FAIR      84  81  89 SE17      29.80F HX  98
MITCHELL       MOSUNNY   93  77  59 S17       29.74F HX 107
SIOUX FALLS    CLOUDY    87  78  74 S14       29.81S HX 100
WINNER         FAIR     107  49  14 W18       29.77R HX 104
YANKTON        PTSUNNY   91  79  66 SE9       29.78S HX 107
$$

MNZ071-072-080-081-089-090-097-098-212300-
SOUTHWEST MINNESOTA

CITY           SKY/WX    TMP DP  RH WIND       PRES   REMARKS
FAIRMONT       CLOUDY    84  72  65 S14G20    29.88S
JACKSON        PTSUNNY   82  72  69 S12       29.87F
LUVERNE        CLOUDY    86  73  66 S14       29.83F
MARSHALL       PTSUNNY   84  73  70 S14       29.82F
MONTEVIDEO     CLOUDY    88  77  70 S9        29.82F HX 100
PIPESTONE      CLOUDY    82  73  74 S10       29.84F
REDWOOD FALLS  PTSUNNY   87  75  67 S15       29.84R HX  96
TRACY          CLOUDY    84  75  73 S10       29.86R
WINDOM         PTSUNNY   84  73  70 SE13G20   29.86S
WORTHINGTON    PTSUNNY   82  73  74 S15G21    29.88S
$$

IAZ001>003-012>014-020>022-031-032-NEZ013-014-SDZ071-212300-
NORTHWEST IOWA

CITY           SKY/WX    TMP DP  RH WIND       PRES   REMARKS
CHEROKEE       PTSUNNY   86  77  76 S8        29.85S HX  97
DENISON        SUNNY     90  77  66 SW14G20   29.84S HX 102
ESTHERVILLE    MOSUNNY   83  75  77 S14       29.87F
LE MARS        PTSUNNY   90  77  66 S14G20    29.83S HX 102
ORANGE CITY    CLOUDY    88  75  66 S7        29.84S HX  97
SHELDON        PTSUNNY   82  77  83 SE12      29.84S
SIOUX CITY     PTSUNNY   91  78  65 S10       29.81S HX 106
SPENCER        MOSUNNY   85  74  69 S13       29.86S
STORM LAKE     PTSUNNY   86  81  84 S10       29.88S HX 102
$$

ABBREVIATIONS USED IN REMARKS
   TC - TEMPERATURE IN CELSIUS
  WCI - WIND CHILL INDEX
   HX - HEAT INDEX
  VSB - VISIBILITY



USA.gov is the U.S. government's official web portal to all federal, state and local government web resources and services.